Details From CYDQ - Dawson Creek
To CYOJ - High Level
Flight Number -
Tags Generated
Created
Modified
Stats Distance 199 nm / 369 km
Max Altitude 0 ft / 0 m
Waypoints 2
Social Downloads 1
Likes 0
Share VATSIM

Download

Looking for another format? Having issues loading an existing format? Contact us
Advertisement - Login to hide

Notes

Generated

Route

CYDQ CYOJ

ID Type Via Altitude Latitude Longitude Leg Dist Tot Dist Heading (true) Name
O CYDQ APT - 0 ft / 0 m 55.74111˚ -120.19361˚ - 0 nm - -
O CYOJ APT - 0 ft / 0 m 58.62750˚ -117.17056˚ 199 nm 199 nm 28° / 31° -

Altitude Profile

Advertisement - Login to hide

Weather


0- 5 10 15 20 25 30 35+ Temperature / ° C

Clouds and Precipitation
Forecast for 2018-05-23 06:00 UTC. Updated 2 hours ago

Ground ~20,000 ft ~40,000 ft Winds

CYDQ

Details ICAO CYDQ (YDQ)
Name DAWSON CREEK
Region Canada
Timezone America/Dawson_Creek (UTC-7.0)
Stats Elevation 2,148 ft / 655 m (AMSL)
Location 55.741667° -120.181525°
Runways 1
Magnetic Variation 17.200° E

METAR

CYDQ 230700Z AUTO 00000KT 9SM CLR 14/07 A2985 RMK SLP112 DENSITY ALT 2500FT

Decode

TAF

TAF CYDQ 230038Z 2301/2305 26008KT P6SM FEW240 RMK FCST BASED ON AUTO OBS. NXT FCST WILL BE ISSUED AT 231245Z

Decode

Departure Runways

ID Width Length Bearing (true) Bearing (mag) Surface Threshold Offset Overrun Length
06 150 ft / 46 m 4,982 ft / 1,519 m 85.32° 68.12° Asphalt 0 ft / 0 m 0 ft / 0 m
24 150 ft / 46 m 4,982 ft / 1,519 m 265.34° 248.14° Asphalt 0 ft / 0 m 0 ft / 0 m

CYOJ

Details ICAO CYOJ (YOJ)
Name HIGH LEVEL
Region Canada
Timezone America/Edmonton (UTC-6.0)
Stats Elevation 1,110 ft / 338 m (AMSL)
Location 58.621387° -117.164725°
Runways 1
Magnetic Variation 16.936° E

METAR

CYOJ 230700Z AUTO 00000KT 9SM CLR 15/08 A2972 RMK SLP068 DENSITY ALT 1600FT

Decode

TAF

TAF CYOJ 230638Z 2307/2319 00000KT P6SM SCT140 BKN210 BECMG 2315/2317 36008KT RMK FCST BASED ON AUTO OBS. NXT FCST BY 231300Z

Decode

Destination Runways

ID Width Length Bearing (true) Bearing (mag) Surface Threshold Offset Overrun Length
13 150 ft / 46 m 4,982 ft / 1,519 m 153.56° 136.62° Asphalt 0 ft / 0 m 0 ft / 0 m
31 150 ft / 46 m 4,982 ft / 1,519 m 333.57° 316.63° Asphalt 0 ft / 0 m 0 ft / 0 m